Location: Charbonni�res
(45.9952°N, 2.9982°E)
Time: 18:11:42
(UTC+00:00)

COSMO-SKYMED 1 - Pass Details

Date: 29 November 2020
Orbit: 621 x 623 km, 97.9° (Epoch: 18 January)

Event Time Altitude Azimuth Distance (km) Brightness Sun altitude
Rises 04:58:29 0° 167° (SSE) 2,891 6.3 -21.8°
Reaches altitude 10° 05:00:40 10° 168° (SSE) 1,989 5.4 -21.4°
Maximum altitude 05:05:00 83° 256° (WSW) 635 2.4 -20.6°
Enters shadow 05:07:30 25° 343° (NNW) 1,266 3.9 -20.2°
